KE0DYO Weather Reports


time (UTC)temp
C
wind
direction
speed
KPH
gust
KPH
rain 1hr
cm
rain 24hr
cm
rain mn
cm
humidity
%
barometer
mb
20260505070014 15 360 8.0 24.1 0.00 0.03 0.00 49 1008.6
20260505064525 15 360 12.9 32.2 0.00 0.03 0.00 48 1008.4
20260505063046 15 360 14.5 29.0 0.00 0.03 0.00 51 1008.2
20260505061555 16 360 16.1 32.2 0.00 0.03 0.00 52 1007.9
20260505060011 17 360 14.5 32.2 0.00 0.03 0.00 51 1007.2
20260505054529 17 360 12.9 17.7 0.03 0.03 0.00 56 1007.2
20260505053045 17 360 11.3 22.5 0.03 0.03 0.00 58 1007.1
20260505051555 17 360 9.7 19.3 0.03 0.03 0.00 60 1006.7
20260505041540 21 360 4.8 11.3 0.00 0.00 0.00 55 1005.3
20260505040100 21 360 3.2 9.7 0.00 0.00 0.00 72 1004.9
20260505034508 21 360 1.6 9.7 0.00 0.00 0.00 73 1004.7
20260505033027 21 360 1.6 6.4 0.00 0.00 0.00 73 1004.6
20260505031544 21 360 0.0 6.4 0.00 0.00 0.00 72 1004.5
20260505030056 21 360 0.0 0.0 0.00 0.00 0.00 68 1004.5
20260505024511 21 360 0.0 0.0 0.00 0.00 0.00 67 1004.3
20260505023022 22 360 0.0 0.0 0.00 0.00 0.00 65 1004.0
20260505021544 22 360 0.0 0.0 0.00 0.00 0.00 63 1003.8
20260505020055 23 360 0.0 0.0 0.00 0.00 0.00 62 1003.6
20260505014512 23 360 0.0 0.0 0.00 0.00 0.00 61 1003.4
20260505013031 23 360 0.0 0.0 0.00 0.00 0.00 59 1003.2
20260505011555 23 360 0.0 0.0 0.00 0.00 0.00 58 1003.1
20260505010014 24 360 0.0 0.0 0.00 0.00 0.00 57 1002.9
20260505004521 25 360 0.0 1.6 0.00 0.00 0.00 55 1002.8
20260505003042 25 360 0.0 3.2 0.00 0.00 0.00 55 1002.7
20260505001556 25 360 0.0 3.2 0.00 0.00 0.00 55 1002.6
20260505000014 25 360 1.6 4.8 0.00 0.00 0.00 53 1002.6
20260504234526 26 360 1.6 4.8 0.00 0.00 0.00 51 1002.6
20260504233039 26 360 1.6 6.4 0.00 0.00 0.00 49 1002.7
20260504231558 26 360 3.2 6.4 0.00 0.00 0.00 52 1002.7
20260504230008 26 360 3.2 17.7 0.00 0.00 0.00 48 1002.7
20260504224524 26 360 1.6 16.1 0.00 0.00 0.00 52 1002.7
20260504223034 26 360 4.8 16.1 0.00 0.00 0.00 50 1002.7
20260504221604 26 360 4.8 12.9 0.00 0.00 0.00 51 1002.7
20260504220024 27 360 6.4 14.5 0.00 0.00 0.00 47 1002.8
20260504214538 27 360 3.2 11.3 0.00 0.00 0.00 50 1002.9
20260504213112 27 360 4.8 17.7 0.00 0.00 0.00 47 1002.8
20260504211508 27 360 6.4 16.1 0.00 0.00 0.00 49 1002.9
20260504210026 27 360 1.6 11.3 0.00 0.00 0.00 49 1002.9
20260504204538 26 360 4.8 11.3 0.00 0.00 0.00 51 1003.1
20260504203056 27 360 3.2 11.3 0.00 0.00 0.00 48 1003.3
20260504201505 26 360 4.8 17.7 0.00 0.00 0.00 49 1003.4
20260504200026 26 360 6.4 16.1 0.00 0.00 0.00 49 1003.5
20260504194542 26 360 3.2 9.7 0.00 0.00 0.00 47 1003.6
20260504193055 26 360 4.8 12.9 0.00 0.00 0.00 49 1003.6
20260504191529 26 360 4.8 12.9 0.00 0.00 0.00 50 1003.6
20260504190030 25 360 4.8 9.7 0.00 0.00 0.00 49 1003.8
20260504184546 25 360 3.2 16.1 0.00 0.00 0.00 53 1003.8
20260504183006 25 360 4.8 16.1 0.00 0.00 0.00 53 1004.0
20260504181522 25 360 1.6 9.7 0.00 0.00 0.00 55 1003.9
20260504180048 25 360 6.4 14.5 0.00 0.00 0.00 52 1004.1
20260504174550 24 360 3.2 14.5 0.00 0.00 0.00 50 1004.3
20260504173006 24 360 3.2 14.5 0.00 0.00 0.00 53 1004.3
20260504171532 24 360 4.8 11.3 0.00 0.00 0.00 54 1004.3
20260504081538 16 360 0.0 3.2 0.00 0.00 0.00 65 1007.2
20260504080114 16 360 0.0 0.0 0.00 0.00 0.00 67 1007.3